GFSGL_500_rhum_003.txt.gz
RH
15 29 28 24 23 38 34 39 36 68 67 74 72 68 56 64 75 73 72 63 62 78 78 75 63 38 15 12 16 18 27 26 26 25 20 23 20 6 4 5 8 7 6
16 25 26 26 44 39 43 40 43 57 76 89 73 42 36 55 68 76 91 76 75 85 92 80 78 83 63 39 20 21 30 40 38 33 43 36 18 10 6 6 11 9 7
9 9 29 41 32 29 46 42 48 58 75 83 82 54 30 33 43 48 44 42 48 72 94 91 74 76 73 66 48 18 12 32 33 33 31 29 26 14 4 20 10 11 7
19 21 25 31 31 29 42 45 39 63 83 86 69 68 62 50 33 30 36 34 36 49 92 93 74 68 77 75 73 67 45 31 25 30 38 26 44 46 30 22 30 11 7
26 15 20 31 24 27 26 39 42 56 65 72 86 80 73 70 51 46 40 45 45 48 69 80 81 74 78 78 72 74 70 75 44 25 26 55 46 52 39 21 8 12 16
19 16 27 15 35 43 48 53 53 62 67 74 71 88 95 88 58 54 36 29 37 48 81 75 84 95 96 93 92 93 97 95 97 89 77 45 26 21 18 25 26 11 16
19 19 40 49 48 57 67 76 86 76 82 88 87 92 94 92 64 54 45 37 39 49 71 69 87 93 97 88 94 95 91 90 95 76 70 40 26 14 14 6 6 19 21
28 28 44 52 67 79 82 88 83 77 97 96 99 92 86 69 59 52 48 48 44 41 50 61 64 67 75 75 63 79 77 82 93 92 56 24 12 25 18 14 12 22 22
36 41 50 55 61 79 84 70 72 88 96 97 96 86 86 72 59 48 56 54 46 50 49 60 52 61 65 71 70 67 72 82 89 49 17 13 27 31 26 19 18 22 19
63 71 63 62 56 62 66 66 80 97 96 96 73 65 73 56 55 60 62 36 38 46 47 48 55 66 56 57 65 63 76 72 63 19 22 29 36 30 24 25 26 20 15
75 74 65 65 57 60 58 71 93 100 99 92 93 78 63 41 70 63 71 55 45 40 45 46 51 53 54 51 63 48 41 37 29 27 27 44 30 24 25 24 23 16 38
77 68 69 69 60 54 55 64 72 74 99 90 64 80 57 37 38 49 63 71 52 46 63 73 50 51 56 49 48 40 33 36 38 46 44 34 31 31 35 29 24 34 55
87 81 75 68 58 52 51 55 70 70 60 50 47 67 58 56 60 68 72 53 62 61 61 46 59 73 58 51 59 45 30 41 43 44 39 38 33 30 33 33 32 36 47
79 88 93 66 59 61 60 75 79 54 53 42 47 45 48 56 58 54 50 56 57 51 47 40 48 49 50 51 48 26 43 49 36 31 29 39 39 39 45 44 39 34 27
77 79 80 74 73 68 72 70 65 53 43 39 42 40 52 41 32 39 62 48 36 45 46 45 40 36 35 22 26 46 46 40 36 29 27 43 46 57 64 60 45 39 30
73 78 69 71 73 74 73 63 43 39 43 54 49 35 30 29 22 26 34 46 63 65 44 31 27 28 27 36 31 17 16 14 14 30 43 57 66 73 70 55 42 41 36
72 70 72 73 67 73 58 47 36 20 25 40 42 22 13 13 23 48 48 59 59 49 42 34 26 29 24 18 19 19 27 38 47 51 63 68 74 68 50 46 51 50 42
67 76 86 64 61 55 46 20 21 29 38 36 14 7 12 34 54 59 60 60 58 46 30 21 22 20 18 12 12 19 33 49 67 76 77 68 52 46 56 55 45 41 41
59 65 60 51 31 18 13 22 34 30 20 12 11 34 65 62 61 59 64 52 40 29 17 16 13 11 10 10 16 34 49 53 53 46 40 40 48 53 44 37 35 33 31
58 57 48 28 16 23 33 28 14 10 6 14 56 64 78 72 72 69 66 48 35 14 12 9 9 8 8 12 18 31 36 44 47 46 48 50 52 50 44 40 35 30 26
37 18 15 18 30 25 17 12 9 12 58 55 36 72 88 69 52 42 32 26 18 10 8 8 6 6 6 13 19 28 46 53 50 50 52 49 47 44 40 35 31 29 27
21 34 32 25 18 12 11 15 26 47 57 75 75 71 53 47 31 19 23 17 7 7 7 7 7 6 7 10 16 27 41 48 46 38 38 38 33 25 17 14 10 10 11
39 32 19 12 8 12 16 27 81 57 58 65 44 16 30 28 20 18 12 7 8 9 8 7 9 8 7 8 13 17 18 27 34 31 33 32 26 18 19 10 6 5 8
25 18 13 8 12 17 14 16 37 45 35 22 8 9 19 25 22 9 7 9 10 11 10 9 9 8 9 10 10 14 14 14 14 19 27 28 20 23 11 10 11 9 6
19 14 10 10 14 19 18 18 28 30 27 23 24 26 28 24 12 7 9 10 11 12 12 10 8 9 11 14 12 11 12 14 16 18 19 22 15 8 12 14 15 14 12
54 13 13 12 13 11 16 26 24 23 23 26 20 11 11 11 6 10 11 13 13 14 14 13 12 13 15 17 16 15 15 13 14 15 16 13 7 9 13 17 18 16 15

GFSGL_500_rhum_006.txt.gz
RH
14 9 16 30 27 18 25 31 23 33 48 48 43 37 45 51 48 41 33 36 40 44 43 43 46 62 76 88 86 81 79 48 14 24 27 29 37 30 31 23 11 10 11
13 6 6 7 11 15 27 29 38 51 50 46 59 66 63 67 64 60 74 64 48 38 43 47 46 48 75 91 90 84 89 88 56 25 34 37 44 38 36 35 26 28 24
14 5 7 8 19 31 29 27 37 39 54 56 55 63 65 68 77 79 88 74 46 42 35 37 43 47 65 93 87 90 87 86 87 90 81 35 42 41 46 41 42 33 30
14 15 14 17 28 26 26 31 42 47 53 58 62 68 69 64 71 76 73 65 49 40 28 32 40 50 59 70 79 87 81 87 87 77 96 92 87 89 50 44 51 50 47
14 18 13 20 31 22 39 47 54 58 55 53 58 68 82 86 80 60 54 49 51 36 36 37 37 50 65 79 84 81 89 90 92 95 90 94 95 93 54 62 59 39 32
18 19 18 22 29 44 50 66 75 66 68 59 59 81 92 94 87 91 71 51 44 39 41 35 32 45 58 83 77 82 76 67 66 81 74 61 85 89 97 83 76 52 38
38 26 22 27 50 52 51 51 50 53 55 70 71 94 85 96 95 76 68 52 48 39 44 40 33 37 51 64 74 66 64 64 62 78 66 81 88 99 94 98 65 24 23
54 48 22 25 42 54 48 46 46 51 58 74 82 92 98 85 98 85 70 56 53 54 50 48 34 48 51 56 56 52 63 71 70 69 80 77 90 97 86 61 23 23 38
56 37 32 38 38 40 48 52 51 58 59 67 80 96 93 68 99 76 71 69 48 62 63 52 48 62 51 52 42 58 70 59 62 72 80 69 62 46 32 28 30 36 27
50 51 47 44 40 48 60 62 65 66 69 84 76 61 55 62 67 60 64 65 40 40 48 66 62 60 52 55 55 60 56 59 64 62 49 46 41 37 37 36 36 29 25
58 61 55 51 61 69 82 83 87 78 71 77 60 62 77 78 52 60 58 60 55 58 60 66 68 58 57 64 66 74 63 68 70 55 55 56 38 35 37 34 34 33 29
62 65 55 65 70 85 96 98 84 75 69 65 63 72 77 66 63 58 46 49 59 65 57 81 63 66 70 67 65 56 88 60 50 52 56 34 35 44 35 32 39 37 32
66 64 73 89 96 96 90 89 73 79 69 70 72 78 69 68 64 55 41 43 54 49 60 71 59 47 38 50 56 59 46 41 42 26 28 39 45 40 37 29 41 44 44
62 66 81 95 93 97 97 95 85 79 77 77 76 62 52 57 45 52 42 40 42 46 46 36 42 51 64 62 43 35 31 27 23 27 26 21 17 13 22 36 48 50 60
62 71 75 71 85 82 83 81 76 68 73 71 58 62 56 37 32 41 41 22 11 18 34 52 55 61 56 45 41 30 31 28 22 20 20 28 41 43 45 62 68 69 65
65 66 68 79 83 75 76 73 74 65 73 65 61 50 24 21 27 34 19 10 35 52 54 51 55 57 51 35 16 15 13 10 11 12 24 42 51 62 73 81 76 60 49
74 76 86 87 73 84 79 70 68 68 60 54 24 16 16 27 25 15 12 47 52 55 55 58 54 36 18 14 11 9 9 9 10 17 34 52 61 62 54 46 50 58 50
84 86 81 79 84 75 64 65 66 60 37 18 22 27 27 21 12 27 53 56 63 66 66 60 39 17 11 8 7 7 6 10 16 28 35 40 41 42 51 58 49 44 40
89 87 94 94 83 90 89 77 56 34 17 42 29 19 10 10 31 51 69 67 59 57 44 26 16 9 6 6 5 5 8 14 22 28 47 48 49 52 54 53 49 45 40
66 99 93 79 83 84 67 28 18 17 24 22 18 13 18 16 35 62 60 50 47 27 19 17 8 6 7 6 6 6 8 13 19 37 45 41 39 42 44 40 32 25 20
84 82 94 85 64 29 20 26 29 28 20 12 10 28 46 21 33 33 34 44 18 16 12 7 7 8 7 7 7 6 7 12 16 21 34 38 35 36 36 32 22 16 14
86 87 56 38 29 33 38 35 21 11 10 9 12 17 31 38 23 11 27 21 16 13 7 8 10 8 8 8 8 10 9 9 12 14 14 18 25 27 26 24 20 18 10
90 63 47 41 47 71 38 23 11 10 12 11 15 28 31 25 13 10 22 20 13 7 8 10 10 9 8 8 9 13 13 10 10 12 13 14 15 16 17 17 10 10 11
62 58 68 71 53 27 23 21 21 27 15 12 14 21 28 24 20 23 25 18 8 7 8 10 11 11 10 10 10 15 16 16 17 15 14 14 13 13 13 7 10 13 14
73 60 64 41 32 32 34 17 33 28 26 32 26 22 25 28 25 19 18 10 6 8 10 11 12 12 12 12 13 17 19 18 21 23 22 16 10 10 9 8 15 19 15
44 21 17 19 48 36 17 35 16 17 6 8 20 24 25 24 14 10 10 6 8 11 11 12 13 14 14 15 16 18 20 21 21 23 24 22 13 10 7 11 17 17 14

GFSGL_500_rhum_009.txt.gz
RH
15 14 10 10 13 27 14 21 27 19 36 39 38 43 33 47 65 68 63 82 77 54 52 45 50 42 33 34 43 48 68 84 81 74 83 80 71 51 28 30 34 37 36
17 14 6 6 9 14 18 25 24 21 22 24 33 36 42 49 52 75 84 78 73 49 42 36 40 47 40 35 45 45 51 68 77 75 70 73 74 76 72 61 28 29 39
22 15 7 7 12 14 24 19 27 30 34 42 54 54 54 54 64 79 76 76 71 54 43 36 35 40 41 38 56 61 68 70 79 88 87 70 77 80 79 93 78 76 75
23 15 13 14 20 27 21 26 32 41 41 51 43 39 44 61 76 82 79 83 75 54 47 45 44 34 41 33 45 60 57 72 76 77 75 58 73 75 77 73 65 82 78
32 18 17 21 28 29 29 39 38 31 37 43 39 39 47 68 65 87 76 82 89 56 53 47 47 35 47 36 33 41 56 72 81 63 65 61 58 58 51 57 63 78 84
52 31 20 20 29 30 26 34 48 50 43 44 43 49 60 58 76 78 72 62 72 70 48 47 49 42 46 43 35 43 47 50 47 53 62 67 70 70 73 76 75 76 80
32 42 35 22 26 44 54 46 47 46 45 51 56 53 68 86 82 61 58 58 64 55 54 56 46 52 55 49 44 69 57 55 36 36 64 79 80 78 71 79 73 61 53
54 37 52 40 27 35 46 43 41 45 54 63 62 65 82 96 79 63 64 65 64 56 52 55 45 46 52 62 57 76 72 65 65 68 65 70 71 76 69 62 51 48 51
41 63 56 55 34 28 33 38 46 55 72 71 72 81 86 68 70 77 72 72 63 57 50 58 54 54 54 58 71 81 74 86 79 87 81 77 71 76 81 64 54 50 34
37 69 64 58 49 40 51 55 55 66 93 86 66 65 65 70 74 79 81 76 64 59 45 38 53 58 68 68 80 84 81 76 86 92 84 60 72 81 55 51 38 31 32
47 72 72 57 56 51 73 65 94 91 90 78 51 50 66 70 79 77 72 61 64 54 39 37 51 44 53 59 77 77 72 66 58 58 61 65 51 38 40 33 36 31 32
49 65 71 55 57 74 76 82 75 84 90 78 77 88 75 73 81 75 68 59 45 28 25 37 32 29 46 61 75 59 45 54 65 61 48 37 35 34 34 22 20 18 16
62 70 66 63 69 73 78 84 84 86 76 74 84 84 79 81 76 62 64 48 36 29 21 29 23 17 34 38 43 58 60 61 48 41 34 31 22 18 16 18 29 36 39
63 69 72 87 87 73 80 87 95 77 74 75 79 77 80 79 70 58 49 28 19 21 28 20 12 21 41 48 50 56 59 49 28 25 18 14 10 10 13 28 44 51 61
60 74 84 91 81 81 90 93 94 81 81 84 84 80 80 72 52 35 17 17 30 27 17 12 32 45 54 53 57 48 22 15 14 11 8 8 10 13 29 50 62 68 68
60 85 92 83 73 82 92 98 95 89 88 90 77 83 75 55 35 27 19 22 20 12 14 44 51 52 54 64 40 14 9 6 6 5 5 8 15 25 36 42 42 43 49
62 69 84 86 72 84 100 95 87 91 93 87 77 88 81 52 20 23 23 17 10 17 44 57 53 57 55 32 14 7 5 5 5 4 5 10 21 43 48 51 54 54 50
62 67 87 88 81 92 95 97 96 94 88 85 90 94 60 19 17 22 14 10 11 18 35 41 50 31 18 14 7 6 6 6 5 5 8 13 30 42 42 48 52 50 44
64 70 76 88 94 97 100 99 96 94 93 85 69 34 18 22 20 14 13 9 11 19 19 23 23 18 13 7 6 6 7 6 7 6 8 12 16 29 37 37 38 37 31
64 73 89 97 97 98 95 94 95 89 79 66 27 27 25 20 15 11 10 13 23 15 14 20 15 12 6 8 8 7 7 9 11 8 9 10 12 14 22 31 32 26 18
100 94 92 96 96 94 86 82 76 84 46 34 28 30 16 13 10 14 13 21 16 12 15 16 13 6 7 9 8 8 10 12 14 12 12 13 11 12 14 14 15 15 12
95 75 79 83 75 78 97 94 79 59 45 29 31 20 12 8 7 10 17 21 15 13 17 18 8 6 9 10 10 11 12 14 17 16 17 19 18 15 12 12 13 10 8
90 82 91 97 97 96 100 92 67 42 37 35 24 14 12 9 8 11 12 13 18 19 21 12 6 6 9 11 11 12 13 14 18 18 18 19 21 21 14 9 9 8 15
83 97 95 98 97 95 81 67 64 57 39 22 27 15 8 8 8 7 9 11 16 18 12 6 4 8 9 11 12 12 13 14 18 19 18 18 20 22 17 10 7 15 16
96 96 96 96 93 63 64 54 44 38 35 20 10 12 11 18 6 8 12 20 20 8 6 4 8 10 10 11 12 13 14 15 17 20 20 19 19 21 22 14 8 15 16
83 90 88 84 89 70 60 36 28 47 43 26 14 10 5 4 6 8 13 14 4 4 5 8 10 11 12 14 15 16 17 18 20 20 20 21 20 20 22 24 11 8 12

GFSGL_500_rhum_012.txt.gz
RH
28 19 15 11 10 23 36 31 11 19 16 30 40 33 41 39 44 54 58 76 72 79 70 65 41 37 30 28 34 27 36 40 39 46 58 64 63 64 64 70 78 80 52
28 26 17 8 6 16 34 16 21 15 14 24 24 32 37 52 48 50 53 67 66 65 74 67 52 42 36 35 30 25 25 31 32 49 59 63 54 51 49 58 60 68 73
43 31 16 11 7 17 16 21 20 16 23 32 41 55 45 37 34 45 50 53 56 56 60 54 54 49 40 34 33 33 30 30 27 42 62 54 51 52 46 46 47 60 73
49 27 16 12 9 10 25 25 13 25 32 38 49 50 40 37 50 46 52 54 53 56 57 52 52 46 45 41 34 35 39 36 32 32 34 37 28 40 57 59 59 57 54
30 22 19 17 12 10 21 16 22 30 39 41 45 43 46 51 51 52 63 70 65 59 60 55 55 48 44 44 38 56 59 51 39 38 39 39 39 36 35 53 65 77 72
45 29 24 17 20 18 17 26 29 38 30 40 45 50 55 64 65 68 77 81 66 67 56 54 54 48 48 52 46 67 64 65 58 60 58 53 51 42 39 51 55 62 72
48 29 20 25 19 23 25 25 28 35 44 43 44 59 61 81 83 79 81 83 81 69 57 50 55 47 50 63 53 60 58 54 59 70 68 73 67 69 60 67 62 64 60
56 45 32 39 26 28 30 30 41 49 46 40 46 69 86 91 98 80 75 70 65 59 62 53 58 56 48 53 40 56 63 64 68 79 85 88 85 90 86 77 79 63 58
62 54 50 68 65 50 37 39 47 52 42 50 55 71 91 77 75 76 72 59 60 60 55 55 41 40 44 58 50 51 65 68 73 90 98 87 77 74 64 58 58 54 48
71 69 56 49 66 70 62 38 40 51 68 45 59 88 77 91 80 84 71 67 72 70 47 51 49 38 27 41 41 40 63 82 94 99 91 71 53 60 68 60 47 36 30
78 67 61 54 61 71 70 53 38 44 66 56 85 92 89 80 67 66 62 76 79 68 46 41 30 23 24 27 64 80 81 96 96 54 56 67 66 58 40 32 27 22 20
65 54 55 50 48 73 76 62 54 61 75 82 94 71 75 61 68 75 79 80 80 58 35 26 20 23 25 24 40 43 43 44 48 54 59 56 38 19 16 14 13 12 11
68 62 36 42 34 64 91 72 57 76 78 94 98 94 76 59 77 78 85 83 75 41 31 20 17 23 21 14 22 41 51 55 59 57 33 14 9 6 6 6 7 10 17
75 67 37 33 25 39 71 73 61 73 81 93 97 89 62 68 70 84 88 88 81 62 26 17 19 16 11 20 45 49 52 60 51 16 8 5 5 4 4 6 13 22 35
77 84 57 39 31 51 66 71 82 92 97 96 88 81 71 72 75 83 87 90 87 51 21 20 16 10 9 15 30 38 31 28 10 6 6 5 5 6 9 14 30 42 43
91 93 85 61 65 60 82 95 96 94 99 98 76 74 91 70 76 82 83 82 49 19 20 16 11 7 10 13 19 17 15 12 6 6 6 6 6 8 10 15 27 38 50
73 86 84 90 73 96 82 92 87 94 97 79 60 88 81 68 88 95 97 78 22 20 16 12 7 6 8 10 13 13 11 6 6 6 7 8 8 9 10 11 17 30 35
91 97 93 98 87 68 62 68 92 100 100 79 52 78 78 90 96 70 37 25 22 18 12 7 8 10 9 11 13 11 6 7 7 8 10 11 10 12 12 11 12 14 20
86 83 74 65 62 56 61 83 100 99 94 72 81 99 99 96 72 45 28 24 20 13 8 5 8 9 11 12 10 5 7 8 10 11 11 12 13 15 16 15 12 12 14
85 88 75 70 60 61 63 74 66 63 74 91 95 96 89 67 59 40 28 22 15 9 6 6 6 8 12 13 6 6 9 10 12 14 14 14 15 16 17 17 15 9 9
58 84 71 61 64 74 76 65 71 92 94 95 97 95 86 76 57 30 25 16 10 6 6 6 7 9 14 10 4 8 10 9 11 12 15 16 15 15 17 18 17 9 8
55 95 78 91 72 75 78 83 97 95 87 88 94 93 69 50 41 30 16 11 6 6 6 6 6 8 10 5 4 9 10 11 10 13 14 17 18 16 16 19 20 10 10
95 98 96 97 97 94 91 82 90 95 99 95 96 99 74 58 35 21 16 8 7 5 7 7 8 10 7 4 7 9 10 10 11 12 13 16 18 18 17 18 20 18 10
75 68 75 84 72 80 77 84 98 97 99 90 66 72 64 35 32 15 9 8 6 6 7 6 9 8 5 5 8 9 9 11 13 12 13 16 17 17 17 18 18 21 17
97 92 79 75 73 70 89 97 95 96 92 80 70 54 46 35 17 12 9 7 4 6 7 6 6 4 4 8 10 10 11 12 13 13 13 13 14 14 15 16 18 19 22
97 88 85 87 95 97 95 97 86 65 57 64 60 27 28 38 21 10 8 3 3 7 7 6 4 4 7 10 10 11 13 14 14 12 12 13 14 15 15 17 18 18 19

GFSGL_500_rhum_015.txt.gz
RH
46 30 20 15 12 12 19 47 36 31 17 17 18 28 33 27 30 36 42 43 49 56 44 50 50 46 47 45 39 35 35 32 31 29 28 33 55 67 66 78 72 80 78
44 35 23 15 13 10 18 44 35 31 17 15 25 31 33 32 42 39 37 43 46 45 42 49 49 43 37 40 34 36 38 38 37 39 34 33 53 45 40 58 56 54 62
44 33 24 19 13 7 8 22 31 25 18 15 27 32 35 46 42 38 48 50 68 71 73 58 50 47 42 40 37 37 38 35 48 55 44 39 36 34 33 30 28 45 61
41 30 24 19 16 8 6 7 19 17 15 22 32 35 50 54 42 49 54 56 72 85 90 80 59 45 40 47 40 36 42 41 39 40 47 44 44 42 40 40 50 48 50
52 30 30 26 19 12 7 6 10 16 17 29 32 46 58 55 48 56 63 65 88 95 96 79 77 52 42 49 44 43 44 34 30 27 30 34 46 56 58 53 52 61 70
66 42 43 42 30 17 14 10 11 16 20 33 41 50 58 53 52 47 58 69 95 96 94 92 58 48 49 45 43 46 33 29 29 31 38 39 52 59 63 66 72 73 75
61 51 47 46 31 24 20 16 19 16 23 30 40 45 51 55 50 81 83 88 91 87 71 67 56 40 41 41 43 40 34 33 39 48 68 76 69 77 79 86 89 76 69
74 72 58 52 40 23 27 23 22 25 25 31 38 44 51 55 69 78 88 93 78 71 67 74 60 45 33 37 33 36 36 45 41 56 57 71 77 78 78 94 78 52 56
52 64 74 65 49 34 34 39 35 31 31 30 35 54 55 59 77 77 85 92 76 74 79 74 55 41 33 30 31 24 25 27 29 48 59 69 73 93 92 55 55 51 48
60 70 80 73 62 58 58 63 65 60 48 42 43 62 63 70 76 79 87 88 81 81 72 74 63 47 37 28 18 19 27 25 20 39 43 44 57 58 53 52 36 15 9
76 95 85 89 73 68 66 62 63 66 65 54 52 63 71 76 74 83 84 82 78 74 64 75 81 79 68 24 18 20 18 12 14 28 37 47 55 55 34 11 6 4 4
86 82 94 89 83 90 71 60 58 71 72 68 58 46 57 65 75 92 88 71 64 55 56 78 84 78 50 20 18 15 9 9 22 38 42 35 37 13 6 5 5 6 6
96 95 88 93 83 90 88 74 68 60 89 80 71 59 62 69 82 91 92 58 51 32 44 65 64 67 26 18 15 10 6 8 18 19 18 16 7 6 5 6 7 7 7
53 80 94 84 81 70 77 91 77 66 58 82 86 89 82 88 99 94 84 75 46 51 72 72 91 84 20 16 10 6 6 8 10 10 9 6 6 6 6 8 9 9 9
54 51 68 74 81 93 72 70 66 50 58 71 90 93 96 93 97 65 98 81 95 82 62 92 97 42 18 12 7 5 6 7 8 8 5 6 6 7 9 9 11 12 11
28 37 42 45 75 81 77 69 76 66 74 91 93 95 94 96 74 74 66 95 93 89 86 39 24 22 14 8 5 5 5 7 7 4 5 8 9 10 10 11 13 14 13
27 25 29 44 52 64 86 86 85 71 72 96 96 81 85 56 50 88 86 67 88 96 94 48 24 17 10 5 5 5 5 7 5 5 8 10 9 8 9 10 13 15 15
19 20 35 58 70 98 94 98 92 85 93 94 95 63 81 63 65 91 95 95 97 66 45 28 20 12 6 5 4 4 6 6 4 7 7 9 10 10 10 10 12 16 17
95 44 66 47 92 85 84 97 96 97 96 92 75 69 56 49 62 72 82 97 80 63 42 23 14 8 6 5 4 4 7 4 6 7 8 10 12 13 12 11 11 12 16
97 95 99 97 95 96 100 87 60 80 70 64 76 55 79 82 68 89 85 88 89 60 30 20 10 6 6 5 4 5 5 3 7 8 9 10 12 13 14 13 12 12 15
94 96 99 89 88 79 70 56 78 87 89 83 88 94 89 97 76 92 88 76 59 37 27 17 7 6 6 6 4 6 3 3 7 9 9 9 10 12 13 14 13 14 14
74 70 71 77 75 77 81 76 70 61 68 68 85 92 84 95 84 94 91 71 58 39 22 13 6 6 6 5 4 4 3 5 7 8 9 10 11 11 12 12 13 14 14
70 71 81 98 74 53 46 66 78 74 98 97 97 89 85 88 98 99 88 61 44 24 18 8 6 6 7 5 4 3 3 7 8 8 8 10 11 10 12 13 14 15 15
66 61 76 76 89 80 87 88 96 90 95 90 94 92 98 98 94 96 69 54 29 22 11 8 6 8 8 6 5 4 4 7 9 10 10 11 11 10 13 15 15 16 17
83 82 94 91 78 86 93 84 78 72 74 92 95 98 95 90 80 72 56 42 29 16 11 8 6 8 9 6 5 4 6 8 10 11 11 12 12 11 14 15 16 16 17
98 99 98 90 97 99 88 89 85 85 96 98 98 97 95 92 80 52 30 35 34 32 10 7 4 7 9 7 5 4 8 10 10 11 12 13 14 11 13 15 15 16 17

GFSGL_500_rhum_021.txt.gz
RH
35 30 36 40 30 30 42 44 35 31 29 17 7 13 21 22 18 26 31 44 42 46 65 73 79 80 58 54 29 31 29 28 25 22 17 20 21 24 33 38 39 39 38
47 49 46 42 38 31 26 20 18 20 22 36 26 15 23 23 22 30 36 47 38 46 64 70 74 76 66 45 28 32 32 26 20 18 17 17 20 25 30 35 36 41 44
55 47 55 46 45 54 52 23 16 12 10 14 39 21 25 24 23 31 33 44 36 42 56 60 84 82 71 26 22 24 28 24 23 20 16 17 17 18 18 21 32 47 42
50 41 37 39 41 42 68 22 15 13 9 8 35 26 25 24 20 28 30 38 35 43 43 85 92 86 66 47 25 22 26 26 24 20 18 15 15 13 14 15 14 14 19
48 38 37 58 63 37 33 26 25 18 13 8 16 32 26 22 17 24 32 36 37 43 44 62 78 82 63 51 32 30 34 31 25 21 17 15 13 14 15 12 14 16 24
61 54 48 46 54 39 34 37 35 34 26 18 10 23 26 20 20 27 32 37 44 39 41 55 81 88 69 67 55 48 54 48 32 23 16 14 14 20 8 6 7 17 38
68 90 42 54 64 40 38 43 48 51 45 32 20 13 16 22 22 28 32 33 40 47 45 42 48 81 78 62 66 62 54 43 37 23 18 15 35 12 6 4 6 11 8
83 77 64 62 62 54 51 47 58 61 60 53 32 21 16 20 22 32 34 35 35 38 58 50 45 52 69 74 66 64 57 65 53 27 16 13 9 6 4 4 9 5 6
72 75 56 46 56 58 66 70 68 75 68 59 42 34 25 22 26 26 30 32 31 35 49 54 53 60 69 82 81 62 74 82 80 67 18 11 6 4 3 3 4 4 3
55 52 49 65 75 74 83 86 82 82 66 66 55 57 48 48 46 48 42 45 44 39 50 46 56 70 70 80 70 82 75 92 96 56 17 10 5 4 3 3 3 3 3
50 50 45 47 64 79 79 68 72 80 77 74 73 64 64 66 68 64 46 49 54 47 49 56 64 72 74 85 68 84 78 83 74 37 15 8 5 3 3 4 3 3 4
29 42 38 47 51 51 55 50 45 45 53 66 67 69 68 81 78 75 73 68 61 61 66 71 79 82 89 90 81 83 68 75 34 20 13 6 4 3 4 3 3 4 4
22 28 40 63 70 71 71 64 62 59 60 67 64 74 56 68 85 95 97 97 94 92 65 75 94 94 94 93 94 94 91 85 70 24 12 6 4 3 3 3 4 5 6
28 60 73 72 80 84 72 69 69 62 96 63 78 90 87 69 67 67 96 90 80 89 99 97 96 95 96 95 86 70 72 98 49 22 11 6 4 3 3 3 5 6 6
54 75 79 79 75 69 71 67 75 63 91 100 70 94 81 74 47 47 92 95 93 74 57 97 92 97 96 76 60 80 59 55 36 20 8 5 3 3 3 4 6 6 6
31 47 50 46 45 44 48 52 73 67 68 80 92 66 85 73 78 72 78 75 60 75 96 87 96 96 89 49 80 90 63 60 34 16 7 5 3 3 3 5 6 7 7
42 40 36 32 29 27 28 29 35 39 38 38 49 60 67 74 99 93 82 88 90 97 97 96 96 87 73 61 85 94 79 50 24 11 6 4 3 3 4 5 7 8 8
33 34 32 30 28 27 25 25 28 35 37 29 38 45 56 100 100 96 90 90 90 95 95 95 91 86 75 68 94 92 60 54 20 9 6 4 3 3 4 6 7 8 7
40 40 34 31 28 33 33 30 26 24 20 19 23 28 28 49 76 80 82 86 87 88 96 94 77 46 61 79 83 88 65 27 15 7 6 4 3 3 4 6 7 8 8
43 40 36 33 32 22 17 14 22 24 34 49 91 88 79 37 56 63 78 88 84 86 96 91 61 64 69 86 64 58 40 21 12 6 6 5 3 3 4 6 7 8 8
39 39 37 35 26 29 23 21 23 45 73 96 94 97 96 95 96 92 84 87 93 96 94 93 87 95 93 88 91 53 37 21 10 6 6 5 3 3 4 5 6 7 8
52 42 41 41 47 41 21 29 55 40 58 74 94 95 96 94 92 90 93 95 96 89 74 100 98 93 83 66 70 64 37 20 9 7 7 6 3 3 4 5 7 7 8
58 51 55 48 31 19 41 39 49 47 77 81 86 92 97 94 87 92 89 96 92 97 100 100 96 77 70 66 65 50 24 16 8 7 7 8 5 3 3 5 7 8 9
57 43 28 20 17 31 51 45 52 62 58 65 79 84 89 93 97 97 96 94 94 95 96 97 91 82 71 73 63 36 26 16 9 7 7 9 6 4 4 6 8 8 9
30 32 37 47 49 61 74 70 82 89 89 71 70 88 98 88 91 91 90 96 85 85 96 82 76 75 84 79 61 37 25 15 11 7 7 9 9 5 4 6 8 9 10
62 60 60 61 63 71 75 74 69 86 90 88 82 75 80 79 73 72 72 68 65 59 56 75 88 94 89 75 44 27 22 18 13 8 6 7 9 8 4 5 8 9 10

GFSGL_500_rhum_024.txt.gz
RH
25 27 24 29 35 37 42 49 47 38 34 30 28 19 6 9 21 13 16 22 26 33 39 51 58 64 75 62 29 27 23 21 18 18 17 18 17 17 14 13 14 14 16
40 36 35 30 35 34 28 27 34 40 37 34 31 33 27 13 20 17 15 24 28 34 40 40 47 43 77 52 27 26 26 20 20 20 17 15 15 16 14 14 13 11 9
49 50 43 38 31 38 35 23 18 16 16 13 11 15 28 38 22 23 16 24 27 28 31 39 72 82 64 48 30 22 22 24 25 23 20 17 14 15 14 12 11 9 8
52 58 58 45 44 45 51 41 20 19 15 13 10 9 14 39 29 26 15 23 23 28 26 41 49 69 75 68 52 36 30 32 36 33 28 22 16 14 12 13 15 8 6
67 62 59 49 39 46 54 37 21 18 28 33 18 16 10 31 33 27 17 23 24 24 24 33 38 52 68 56 62 56 54 53 45 47 46 34 22 15 12 23 12 8 2
62 52 65 56 37 47 54 44 25 33 39 48 50 35 21 11 26 30 20 16 24 28 27 24 34 39 42 58 64 69 68 65 56 45 46 48 36 20 16 16 9 19 10
64 65 68 65 53 32 53 55 46 43 50 51 59 55 36 19 12 11 12 12 17 20 22 23 29 31 40 45 47 66 67 74 70 58 61 74 85 61 19 12 18 5 12
42 67 66 77 79 59 68 56 49 40 41 54 56 59 57 31 20 14 16 15 15 19 25 26 29 32 36 42 53 57 72 72 64 56 64 94 93 64 17 13 9 5 3
45 52 65 78 87 47 38 55 50 52 58 54 60 65 61 46 32 23 20 18 20 21 24 28 31 37 38 47 50 67 81 76 72 62 64 84 76 41 13 6 4 3 3
58 69 63 57 83 95 58 58 49 48 66 63 66 76 68 64 52 41 36 28 35 36 36 42 47 48 45 53 62 62 85 94 79 66 63 79 68 22 12 5 4 3 3
27 36 45 40 56 59 48 46 53 52 52 54 52 58 67 73 68 62 62 63 64 65 66 62 50 48 56 59 71 76 90 89 87 77 74 89 86 51 15 5 4 3 3
15 15 22 32 41 39 42 39 42 46 38 40 37 46 58 63 78 78 66 65 71 69 65 59 74 60 52 58 68 86 82 81 82 85 71 90 93 90 14 5 4 3 3
11 15 18 20 22 24 32 28 33 50 55 55 38 46 62 76 80 69 60 70 77 71 64 64 71 93 88 80 78 93 93 90 94 96 72 89 99 75 14 5 4 3 3
11 12 14 23 28 31 38 48 45 48 67 72 84 88 79 77 85 84 96 83 81 91 65 45 72 78 68 75 89 92 96 97 95 95 64 95 88 46 11 5 3 3 3
14 12 12 13 18 30 37 54 40 55 54 66 82 82 83 66 58 70 76 96 93 92 90 93 80 66 72 79 96 96 95 95 96 85 75 72 72 28 10 5 3 3 3
21 20 19 19 17 19 32 39 33 40 32 36 43 62 79 88 90 94 70 82 98 98 97 94 90 90 87 94 96 94 96 96 91 65 54 86 81 33 9 5 3 3 3
26 26 25 27 24 27 30 39 41 33 30 28 31 31 44 57 57 64 96 84 68 98 97 81 79 98 96 90 96 91 96 94 62 59 85 87 69 21 8 5 3 3 3
34 33 30 29 33 39 39 36 32 26 26 27 28 30 35 38 38 40 41 43 46 66 86 86 84 92 90 93 96 96 90 75 71 88 98 82 52 15 6 5 3 3 3
38 41 40 38 38 37 37 35 31 29 27 27 30 35 33 22 15 18 31 43 54 64 70 77 87 96 96 95 96 96 83 65 90 96 95 66 28 12 6 5 3 3 3
54 53 51 47 43 42 43 40 36 30 27 28 29 25 17 11 11 30 59 87 95 89 85 89 80 94 95 90 91 90 92 91 96 71 56 38 19 8 6 5 4 3 3
60 48 43 41 38 38 36 34 34 33 31 31 36 20 9 13 19 48 96 98 96 96 95 92 94 100 96 92 96 92 88 83 83 79 55 28 17 7 6 6 4 3 3
66 50 38 36 32 30 30 34 37 37 39 38 37 26 22 29 34 69 91 95 94 94 95 95 95 90 90 95 84 96 81 89 93 83 46 27 15 7 7 7 5 3 3
60 46 38 34 35 35 38 47 47 43 41 39 41 54 52 55 53 83 89 88 88 93 100 95 92 94 96 92 95 90 83 76 79 71 49 23 12 7 7 8 7 4 3
66 53 45 53 56 61 62 61 45 38 39 55 50 48 49 44 68 76 81 86 96 96 89 91 77 77 94 97 98 91 75 75 73 58 28 21 14 8 7 8 9 6 4
58 69 75 71 60 51 45 36 35 30 32 54 60 65 58 62 64 77 72 75 85 90 94 95 97 94 96 98 97 93 91 89 72 51 35 24 15 10 8 7 9 9 6
45 46 41 45 44 52 54 58 64 63 69 87 75 68 72 75 80 78 90 75 72 72 67 77 77 72 85 88 84 92 96 85 75 55 33 22 18 14 8 6 7 9 9

GFSGL_500_rhum_027.txt.gz
RH
9 14 13 18 20 16 19 20 25 29 38 36 34 31 29 26 13 11 19 10 16 22 26 28 33 40 39 50 53 24 28 24 18 19 19 20 19 14 13 12 10 11 11
29 22 23 24 23 25 22 23 26 32 37 41 39 36 31 29 30 18 20 15 17 21 25 24 45 72 74 78 33 29 27 22 20 22 21 21 21 21 17 15 13 11 9
27 29 37 37 38 35 26 27 24 19 17 16 14 11 8 8 13 34 25 22 15 20 25 22 58 59 67 51 44 39 32 27 29 31 33 37 35 30 25 22 20 14 15
35 36 42 48 54 46 33 23 23 26 20 17 14 15 10 7 6 9 35 28 14 18 18 15 49 44 60 67 66 58 46 43 49 52 43 39 38 38 39 36 31 17 16
37 44 50 57 61 50 38 38 31 22 21 21 20 16 14 12 8 6 13 26 23 15 20 16 15 25 32 46 47 62 64 63 63 57 56 50 45 47 48 56 58 41 16
54 52 59 68 67 61 50 45 43 30 29 30 33 38 42 38 23 14 8 13 17 11 16 19 18 19 20 30 39 42 45 45 57 67 66 63 44 41 67 69 67 37 17
75 68 64 62 64 65 60 48 48 24 21 28 32 37 47 53 46 31 20 12 9 10 12 18 17 16 21 27 26 30 39 36 42 58 76 71 53 42 54 66 58 33 11
82 76 61 57 56 69 77 72 63 30 23 23 28 36 40 46 60 54 44 39 31 17 10 12 16 19 23 26 28 32 33 35 41 39 58 71 64 70 57 56 72 45 16
83 73 64 51 46 50 66 85 77 35 35 25 28 38 48 52 57 63 61 55 55 42 25 17 20 19 22 27 33 30 32 38 46 52 51 63 76 78 77 79 62 84 58
75 74 65 63 33 47 58 72 88 68 35 37 39 40 46 54 59 65 71 67 54 61 56 46 44 49 40 45 45 48 52 53 56 59 58 70 90 94 96 98 84 89 88
64 63 59 51 40 47 53 48 59 66 45 44 44 39 47 61 64 71 76 73 77 81 82 69 56 60 61 62 64 66 64 66 54 59 89 76 95 95 91 89 97 83 97
14 18 20 21 37 40 43 34 44 63 50 41 37 39 27 32 43 60 70 67 76 81 82 80 77 71 67 81 84 81 75 63 73 89 88 84 95 96 95 94 97 82 81
7 8 11 17 22 22 27 32 45 40 34 33 27 24 27 33 45 49 48 86 93 78 85 88 74 76 74 61 77 99 93 50 64 83 90 96 96 93 93 97 73 90 60
8 8 10 12 14 16 17 18 16 18 21 26 36 28 36 36 48 55 51 80 87 79 75 88 84 75 69 61 94 92 94 96 99 94 99 93 97 95 96 96 85 82 52
12 12 12 12 14 14 18 17 12 22 35 38 42 52 58 65 76 69 64 32 49 94 100 97 98 79 43 99 100 73 96 97 92 95 96 94 94 97 89 70 89 87 57
17 16 16 15 14 13 12 14 13 15 20 40 41 42 42 59 84 75 51 35 31 38 83 90 99 86 88 56 93 94 96 81 96 86 95 96 77 86 91 81 84 77 45
23 22 21 21 20 19 18 18 18 18 19 26 27 30 39 29 30 40 30 34 32 33 37 38 37 50 68 64 50 62 96 95 94 96 96 84 92 97 86 82 73 75 35
24 24 22 24 24 23 23 24 24 24 25 26 26 27 26 27 28 29 31 31 30 30 34 31 24 24 36 46 58 65 98 95 86 96 96 86 90 80 67 76 84 72 19
32 30 29 27 26 27 30 32 31 29 26 29 34 36 36 34 32 29 27 29 31 30 29 19 21 34 44 42 53 61 87 97 94 96 96 86 77 61 84 89 66 30 10
42 41 40 36 38 44 42 41 38 46 44 38 44 41 38 36 33 30 28 28 30 26 22 20 58 56 100 85 95 94 92 90 96 94 94 90 95 75 84 64 39 20 10
50 46 42 42 45 47 49 54 56 52 43 39 38 36 33 30 30 39 33 33 31 21 23 15 45 97 97 96 95 94 89 97 94 94 94 86 89 96 80 56 33 19 10
46 47 50 50 50 52 54 48 42 36 33 31 29 29 25 24 31 40 32 29 24 23 19 32 81 96 96 95 96 99 95 93 96 95 90 96 90 97 100 69 34 17 9
52 56 57 55 54 53 56 48 35 28 29 27 26 26 26 42 44 40 46 36 32 30 35 58 98 96 95 96 96 95 95 97 96 92 88 100 92 99 78 58 32 16 9
77 76 75 79 63 61 70 57 42 30 27 29 33 44 54 35 35 60 65 58 55 54 55 61 76 94 97 96 97 97 97 97 94 96 98 88 85 81 70 47 22 15 10
77 73 68 81 82 74 64 39 32 30 39 52 54 52 41 30 44 60 64 64 62 61 66 64 73 74 71 79 73 82 91 96 97 96 92 93 77 69 60 38 24 16 12
90 73 70 62 44 40 43 45 46 51 50 49 45 38 40 44 60 72 77 74 76 68 60 66 73 93 95 95 96 96 96 96 96 97 95 84 89 74 64 42 29 17 14

GFSGL_500_rhum_030.txt.gz
RH
3 3 3 5 7 13 18 15 14 17 19 26 31 32 31 29 27 24 9 18 14 10 12 17 13 25 56 51 57 56 24 20 17 18 20 22 26 30 34 32 32 27 27
3 4 7 12 15 21 24 21 19 24 26 28 38 40 39 34 28 23 23 17 20 14 13 17 15 37 64 65 63 42 30 27 24 28 28 32 36 37 37 36 26 28 39
4 7 13 19 30 36 36 30 23 21 20 18 15 13 11 8 7 6 7 11 23 22 12 17 18 33 52 65 67 60 62 49 42 42 46 41 38 38 33 27 42 55 46
23 21 27 30 40 42 49 40 30 23 28 24 16 12 10 8 6 5 5 8 20 26 15 11 16 14 40 49 53 54 62 64 60 56 58 51 46 44 49 38 44 48 54
14 14 40 40 44 47 56 54 41 32 24 19 16 16 15 16 14 12 8 8 10 19 17 10 12 17 22 25 25 36 40 44 45 43 44 44 53 60 65 58 49 42 44
15 15 47 61 73 69 65 60 52 38 34 19 19 20 18 28 32 29 25 18 11 10 8 6 6 10 16 18 19 17 19 25 29 34 34 34 37 40 45 64 68 63 50
37 47 55 68 69 65 67 67 64 56 37 22 18 19 28 38 48 47 45 44 43 47 44 17 9 9 11 14 17 18 20 24 28 32 35 34 33 40 49 61 69 78 68
53 54 64 72 68 59 57 60 71 74 71 61 22 18 22 38 47 50 54 47 44 44 42 49 40 19 16 14 15 18 21 26 28 31 35 39 45 62 79 90 74 77 96
61 67 69 71 77 66 55 53 57 77 85 76 61 30 25 30 40 46 53 55 57 59 56 40 50 53 56 50 39 32 28 32 37 42 46 48 52 64 72 73 88 92 93
77 85 91 82 79 75 68 48 44 56 78 80 48 29 43 59 64 59 64 70 61 66 67 62 66 71 77 69 61 63 60 62 61 65 64 66 65 68 84 95 97 87 93
48 54 78 85 81 74 71 63 48 50 50 51 66 68 46 39 44 54 59 62 58 57 63 70 69 71 73 75 83 74 71 77 74 69 61 45 40 62 77 89 93 90 88
13 28 45 60 76 72 68 64 44 26 45 42 45 46 44 46 40 41 46 46 56 54 51 58 59 83 95 99 64 59 78 87 84 80 79 62 74 94 97 92 93 94 89
8 10 20 25 27 41 47 28 22 14 21 25 18 30 43 38 40 48 48 47 46 37 35 65 61 60 70 80 77 91 96 79 82 74 67 81 95 95 96 95 96 92 92
8 7 7 6 6 7 10 18 29 17 19 21 24 34 28 26 25 26 36 48 50 46 35 49 54 77 68 39 46 70 96 87 70 92 99 98 98 96 94 96 98 95 96
10 11 9 7 7 7 8 9 10 13 15 14 18 20 15 24 29 28 37 27 37 48 68 74 71 62 67 70 64 44 48 37 37 43 63 70 75 92 88 91 96 99 100
12 13 13 12 11 11 11 11 11 11 16 18 17 20 23 27 38 25 26 49 58 48 57 62 57 40 46 42 42 43 37 37 34 38 44 55 64 68 85 97 95 93 97
21 21 20 18 17 15 14 13 14 14 14 15 14 14 15 16 20 21 24 29 35 32 25 26 26 25 28 31 33 33 34 41 51 54 57 67 74 86 96 96 85 86 82
25 25 24 24 22 21 21 20 20 19 19 19 20 21 21 23 23 24 26 27 27 32 36 32 30 30 29 28 26 26 26 28 38 57 61 71 87 95 94 95 91 91 73
24 26 26 28 28 27 25 25 24 24 23 23 23 24 25 26 29 28 24 24 32 32 31 32 33 28 20 21 24 23 22 23 26 42 82 98 96 94 98 93 93 93 88
27 27 25 26 29 29 27 26 26 28 28 26 28 37 38 37 40 40 36 31 30 28 29 29 23 21 19 24 21 20 20 37 54 87 97 97 97 96 96 96 94 95 96
28 30 28 28 33 34 34 35 37 35 33 35 35 38 39 39 39 36 34 28 24 26 26 21 32 28 24 20 15 13 35 79 96 98 97 98 93 95 96 88 92 95 85
30 38 40 41 44 46 46 45 44 46 47 44 41 41 43 41 37 34 31 26 24 22 23 32 31 29 26 18 14 34 66 97 97 96 91 97 96 96 100 95 87 94 93
34 44 46 47 48 50 53 55 54 50 45 44 42 42 46 50 47 36 31 27 23 27 38 37 37 40 39 42 42 53 70 80 82 93 96 95 94 96 90 75 86 93 70
52 54 56 55 54 52 53 52 49 47 48 50 51 50 50 52 43 35 33 29 27 42 39 31 37 51 58 58 59 54 61 67 74 88 93 96 97 95 95 96 85 68 68
54 63 65 62 57 56 54 53 53 55 59 61 60 62 54 44 37 35 36 46 51 45 29 24 41 70 63 55 53 53 54 56 58 89 97 94 88 97 96 83 73 67 63
72 71 79 80 66 63 66 63 55 56 59 59 67 65 46 41 37 34 37 42 41 35 35 49 69 68 72 62 58 61 72 86 85 80 96 96 94 96 96 96 89 77 73

GFSGL_500_rhum_033.txt.gz
RH
3 8 5 4 2 2 6 15 15 13 13 18 17 24 26 26 24 25 24 19 15 16 10 12 14 13 15 45 61 68 51 26 21 25 31 35 37 30 29 29 22 26 44
4 4 3 2 4 8 18 20 19 11 14 21 18 20 21 26 28 28 18 15 18 17 18 12 12 16 15 42 55 65 61 62 58 45 40 47 51 54 54 49 51 47 40
3 3 3 5 16 17 28 33 32 26 17 16 13 11 10 9 8 6 6 6 12 19 20 18 13 12 16 23 52 60 57 58 58 55 54 50 48 46 50 48 54 58 63
2 3 5 9 18 28 37 46 34 28 22 15 16 12 10 9 7 6 6 6 7 9 12 19 13 14 14 15 19 36 32 30 34 35 37 34 35 36 34 33 35 47 56
4 5 10 12 27 37 45 51 48 42 26 20 16 13 12 12 14 16 19 19 12 14 21 15 11 12 13 16 16 16 16 19 20 22 28 28 29 28 33 33 38 45 61
6 11 15 12 35 46 62 62 55 53 35 34 19 14 17 19 26 30 31 33 30 41 40 43 40 18 11 10 12 14 14 15 20 23 24 27 30 28 26 36 47 57 67
13 37 24 41 69 65 66 65 59 55 54 50 30 20 22 27 37 38 37 39 44 41 46 52 43 55 48 27 15 14 14 16 18 20 23 25 32 39 49 52 60 67 67
22 37 50 62 78 73 70 66 66 72 69 70 67 34 18 22 31 44 46 40 45 48 54 57 53 47 59 70 76 72 67 49 41 43 51 51 52 56 62 68 69 72 71
26 48 59 64 79 79 73 68 64 61 60 70 80 70 40 30 24 31 42 49 48 48 65 75 79 74 66 54 64 67 72 69 82 79 74 70 69 69 68 74 71 84 80
39 52 61 72 91 91 81 74 72 69 64 49 68 86 62 35 38 48 63 62 52 68 66 74 62 72 80 81 80 67 62 74 74 80 80 74 80 92 87 77 81 84 82
58 66 78 84 85 85 84 75 79 76 70 65 53 53 65 70 69 68 66 47 46 50 41 51 53 50 61 68 60 62 84 98 97 81 81 89 95 91 84 90 94 93 85
25 54 62 59 60 60 72 83 78 75 70 66 63 35 50 51 63 52 43 43 37 24 27 29 43 48 45 44 46 48 63 67 71 78 75 78 74 64 74 80 95 78 78
8 21 41 50 45 37 42 54 58 70 76 76 62 24 26 38 36 34 23 30 27 18 17 20 30 43 33 28 35 41 58 77 95 72 56 59 61 69 73 74 66 68 63
7 6 11 14 17 19 18 12 14 21 37 41 24 20 13 14 12 10 14 15 15 13 14 15 17 19 20 21 29 42 50 55 47 35 36 35 36 46 54 60 61 68 82
7 7 7 8 9 9 9 8 7 6 6 6 8 9 8 10 13 13 14 21 25 25 25 25 28 21 22 28 37 45 43 39 32 28 32 44 52 52 66 73 86 85 77
10 9 9 9 9 9 8 7 7 7 8 8 9 10 11 12 19 26 30 32 28 19 22 19 20 22 22 24 22 26 25 26 29 33 37 43 48 50 56 64 84 92 96
16 15 14 12 11 12 12 12 11 10 10 10 11 14 20 22 19 16 15 16 16 17 18 20 20 20 20 20 22 24 24 25 27 17 18 23 28 40 47 36 58 94 96
25 23 22 19 17 16 16 16 16 16 15 15 15 17 18 19 19 18 19 19 20 21 24 28 32 28 28 29 28 24 21 17 15 10 16 22 26 29 34 39 49 97 98
23 25 25 28 29 28 31 29 26 26 29 28 32 28 27 25 23 23 25 26 27 31 36 33 31 31 32 30 25 21 15 12 14 21 21 20 26 26 32 52 97 97 97
24 22 21 22 24 26 25 27 28 26 28 28 26 26 25 24 24 25 27 29 30 31 36 36 29 31 33 29 23 15 20 26 24 26 42 31 50 94 98 98 98 97 95
25 24 24 22 23 26 27 26 25 22 23 24 26 24 23 25 28 29 31 37 39 35 32 32 31 31 28 29 25 19 29 27 25 27 22 16 51 96 97 96 96 95 96
21 22 25 26 26 26 27 28 28 28 28 30 31 33 34 36 35 37 38 40 41 40 40 38 32 33 32 30 24 32 31 27 24 39 47 41 41 74 88 92 92 91 94
16 17 19 21 22 25 28 28 28 28 28 28 30 33 40 44 42 41 41 42 40 37 37 35 37 37 32 26 28 37 29 28 29 47 51 41 61 76 84 89 89 96 96
19 18 18 18 18 19 22 25 30 33 36 40 44 45 45 45 47 47 47 39 39 48 50 48 53 41 34 32 34 35 27 28 45 59 58 50 59 70 88 97 96 96 96
39 38 25 23 26 25 27 33 43 51 57 55 56 55 55 55 50 45 39 40 47 43 49 54 53 36 34 33 35 33 28 44 55 65 52 60 58 72 92 85 93 93 96
50 44 44 48 44 44 46 50 57 67 69 68 64 64 59 52 52 55 51 44 49 62 57 45 36 35 38 40 38 35 42 50 57 66 60 59 76 81 83 89 89 90 89

GFSGL_500_rhum_036.txt.gz
RH
4 4 15 8 7 6 5 3 2 10 15 13 14 15 17 19 19 26 25 24 19 17 18 16 13 14 16 13 20 44 52 50 53 57 50 47 50 50 44 37 37 34 34
4 5 9 6 5 4 3 8 18 17 10 9 13 17 28 33 32 31 29 29 22 17 17 20 19 15 20 18 17 21 39 38 25 35 37 38 40 36 31 30 36 42 49
2 3 4 4 3 4 10 21 27 26 17 15 13 16 19 23 17 10 7 6 7 10 16 20 22 18 18 25 24 24 25 24 23 26 28 25 28 29 32 33 38 39 47
3 3 3 4 10 16 28 36 41 29 20 15 15 11 10 9 7 6 8 11 9 10 16 20 20 16 13 11 13 22 24 21 18 22 24 24 25 28 30 32 39 45 49
3 3 4 8 14 27 36 48 44 38 29 17 15 13 11 10 10 17 22 24 21 37 36 35 28 18 16 12 12 11 12 15 18 21 22 22 23 26 29 38 41 50 60
2 3 5 16 30 40 46 52 56 47 30 23 16 14 12 14 23 26 30 31 34 35 34 44 50 45 38 34 24 19 18 25 25 25 24 24 27 38 48 53 58 61 87
7 13 16 22 39 54 60 59 59 56 48 32 20 14 18 21 30 33 36 39 44 42 45 47 38 40 58 62 60 54 53 67 61 58 59 66 65 65 71 73 79 88 95
45 45 40 41 75 76 72 66 61 61 71 67 59 33 16 20 24 28 35 35 33 43 51 43 50 57 52 47 43 47 73 83 85 83 62 69 59 84 80 76 84 95 94
60 63 78 79 92 80 79 75 73 66 63 66 64 70 62 42 28 25 26 29 33 40 46 46 54 67 90 87 79 72 68 74 82 92 96 92 82 97 87 92 97 96 91
28 25 32 78 95 95 79 76 76 71 66 64 54 50 60 82 68 38 30 34 38 39 46 69 63 58 80 74 72 78 70 85 85 86 82 88 78 79 82 87 92 89 93
37 16 53 89 92 90 96 92 76 78 76 74 70 66 56 53 60 55 36 31 42 58 45 46 46 41 41 40 47 47 56 66 71 74 75 69 76 73 90 99 92 78 66
68 62 47 57 71 86 88 86 89 81 80 79 81 70 67 60 59 44 52 53 58 46 43 44 41 35 22 18 17 23 31 40 44 38 38 52 52 63 86 87 71 62 61
26 37 46 60 77 81 79 75 75 86 91 85 69 74 74 56 57 30 23 46 48 42 36 28 23 21 14 13 19 22 24 26 29 24 24 25 27 29 32 36 44 58 80
8 10 15 29 46 56 54 51 52 51 56 60 51 50 62 58 50 27 27 22 22 18 15 14 14 23 28 27 26 24 21 20 21 21 25 28 36 41 34 41 48 52 63
8 7 8 10 18 22 22 22 22 21 20 19 15 14 21 25 29 32 32 22 12 11 17 26 30 33 32 31 28 22 21 21 22 24 25 28 26 23 28 22 10 17 25
10 7 6 7 9 11 11 11 9 11 12 10 10 9 9 10 13 15 14 13 14 24 31 32 31 24 19 18 20 26 26 24 26 28 29 27 19 12 15 15 18 24 22
21 15 10 8 7 7 7 7 8 8 8 8 8 7 8 8 8 9 10 14 18 22 24 21 19 19 20 22 22 24 24 25 28 31 30 25 16 12 20 21 23 24 30
24 22 18 14 12 11 10 10 10 10 11 11 10 10 11 13 14 15 17 21 23 22 20 21 20 21 23 22 23 26 27 28 28 29 24 20 13 16 21 22 20 27 22
27 25 24 23 22 21 18 16 14 13 14 14 17 18 18 18 18 20 22 24 29 29 26 23 24 25 25 25 28 29 31 30 30 32 25 20 17 21 21 26 24 12 20
29 28 27 27 25 25 25 24 24 25 26 30 30 30 30 31 31 34 35 32 26 23 24 24 27 28 29 29 30 32 33 32 33 29 26 22 19 24 26 17 11 18 16
30 28 27 27 27 26 26 26 25 24 27 30 31 29 30 31 31 27 25 26 27 27 27 26 24 24 28 37 38 36 34 38 39 32 29 24 20 26 26 19 38 43 63
28 25 24 25 25 24 24 24 24 25 26 24 25 24 22 24 27 28 28 28 26 24 23 24 31 40 41 37 35 32 36 34 38 34 30 25 24 24 24 24 42 48 59
23 21 20 21 22 23 24 24 26 28 28 28 29 30 30 31 32 33 35 36 37 36 37 42 46 43 41 40 34 31 32 26 30 42 30 29 30 25 27 30 37 52 72
22 21 15 16 17 20 22 23 23 24 24 27 29 30 32 34 39 42 41 38 37 42 44 49 46 45 43 39 35 34 42 41 43 34 28 32 34 28 33 45 58 68 73
24 21 20 18 18 17 17 19 20 21 22 26 32 31 27 23 25 27 31 42 45 44 48 53 53 50 48 45 38 38 42 41 36 32 30 32 38 39 51 65 56 76 75
14 16 21 25 21 21 18 18 19 21 23 29 33 31 31 37 34 32 39 47 50 50 58 66 61 56 48 43 46 49 51 44 39 33 31 29 32 36 46 57 65 62 72

GFSGL_500_rhum_042.txt.gz
RH
5 6 8 8 5 3 6 10 11 12 12 11 10 6 4 4 6 9 9 18 26 24 19 19 19 14 15 13 16 18 17 17 19 21 23 24 25 26 27 30 33 47 60
5 4 8 5 2 3 7 13 11 12 10 4 4 5 8 8 14 17 16 26 30 33 21 16 19 12 10 12 15 15 16 15 17 19 22 23 23 24 27 33 49 58 75
10 4 5 4 2 5 10 12 10 6 4 11 15 18 19 19 22 28 32 32 31 18 15 15 17 15 12 11 12 12 13 14 14 18 18 19 24 33 45 49 53 56 65
8 10 3 2 3 12 10 9 5 5 20 20 18 20 21 22 25 29 26 17 8 9 13 14 17 17 13 13 16 17 18 20 21 26 40 57 65 67 70 60 60 81 83
3 7 5 5 13 14 8 5 3 17 24 26 23 20 15 16 13 8 6 8 9 11 12 18 24 23 21 24 31 34 41 45 57 56 59 69 79 75 65 48 46 46 55
2 4 6 7 16 7 5 3 11 26 30 32 22 19 14 11 9 9 15 15 22 32 31 32 29 29 35 42 45 44 40 31 28 39 40 37 47 55 70 60 76 81 65
3 6 6 7 9 5 4 8 26 38 32 25 22 18 15 12 10 14 22 26 29 35 33 32 34 29 28 31 32 31 31 35 23 18 25 47 50 74 62 79 80 64 62
3 3 3 3 4 4 12 28 44 43 38 34 28 19 15 14 13 16 25 27 32 36 44 44 42 48 49 45 34 34 40 26 27 45 48 68 92 88 70 54 50 47 36
4 3 3 3 4 17 30 51 58 55 55 53 45 28 20 18 17 18 25 29 30 35 34 36 35 38 39 39 34 42 77 82 71 56 47 46 52 55 55 56 52 28 28
4 3 4 12 25 35 48 67 69 70 64 57 64 67 74 63 49 39 28 27 32 37 41 45 45 40 47 49 39 62 79 83 54 52 51 54 47 52 55 49 27 29 29
58 21 23 47 51 50 64 77 88 82 66 56 68 83 90 79 77 77 72 59 59 73 65 54 39 40 53 55 56 68 76 78 64 50 51 54 45 51 30 24 29 30 33
79 65 32 51 76 70 70 94 93 91 89 85 87 89 90 84 86 79 68 59 52 66 66 64 60 64 61 59 62 66 68 53 36 32 34 42 42 33 22 24 27 30 33
94 98 68 21 67 96 87 83 84 86 83 85 88 89 84 87 92 95 86 89 87 68 66 75 62 66 70 64 67 61 61 51 38 39 39 41 36 27 23 22 22 25 28
85 89 96 93 35 53 85 98 84 96 90 81 78 85 85 88 87 91 91 98 97 95 91 67 78 70 72 80 70 63 56 51 44 48 40 31 30 26 24 17 16 18 22
98 100 88 97 94 97 80 69 81 94 96 95 92 91 76 86 85 86 92 94 95 95 88 83 61 58 69 75 67 55 53 44 38 38 30 29 30 28 23 20 17 15 19
75 67 60 75 91 88 86 84 57 68 92 91 90 83 85 80 76 85 84 87 86 83 64 49 40 44 41 40 35 33 35 37 28 26 26 32 33 25 22 20 15 15 17
35 32 41 53 63 73 75 74 66 29 34 50 54 54 53 66 80 82 77 81 78 54 26 20 20 18 21 26 24 22 22 25 21 23 37 36 27 24 22 18 14 14 13
48 26 15 14 17 19 27 40 46 55 57 59 55 52 55 52 54 52 26 17 15 14 12 11 11 13 18 19 20 20 20 25 38 42 35 28 26 24 18 16 14 17 22
53 42 28 16 18 21 22 17 14 12 11 10 9 9 9 10 10 10 10 10 12 14 17 17 17 18 23 31 35 37 40 42 40 35 30 28 22 17 16 15 20 20 22
35 51 57 34 26 27 29 31 30 28 25 21 16 13 12 11 11 12 14 14 14 15 16 20 26 32 34 33 34 35 36 35 32 29 26 18 12 13 15 20 24 24 31
38 52 58 50 41 32 25 26 30 32 32 30 29 27 27 28 30 29 28 28 26 28 28 28 29 28 28 29 30 32 28 26 22 17 15 14 16 17 20 24 30 38 42
46 48 57 55 53 43 37 29 28 31 34 35 34 32 30 29 27 26 27 28 30 28 26 25 25 25 25 25 26 26 24 21 18 19 18 17 17 18 22 27 42 51 50
67 55 55 56 54 48 44 41 38 35 34 35 36 35 33 31 30 30 29 27 25 24 24 24 24 25 26 25 24 22 19 17 20 20 18 18 20 25 31 37 38 56 50
84 70 66 59 61 60 52 45 41 41 40 38 37 35 34 32 30 26 24 21 20 20 21 22 23 23 20 16 16 17 16 19 20 21 24 37 44 49 54 64 59 57 49
91 84 74 60 68 71 59 46 43 42 42 39 35 32 32 29 27 23 19 16 15 15 15 14 14 15 15 14 16 17 18 24 25 29 37 48 52 47 55 65 64 57 57
88 90 90 89 73 71 61 44 39 36 34 33 30 28 24 20 15 13 11 11 13 15 16 17 19 18 18 24 30 32 34 35 28 30 40 60 62 63 51 64 64 61 54

GFSGL_500_rhum_045.txt.gz
RH
20 30 16 9 7 6 4 5 6 11 12 12 11 11 11 6 4 6 9 10 24 24 18 16 10 9 10 18 18 12 14 16 20 22 22 23 23 26 32 45 58 65 68
6 14 18 11 9 6 4 5 8 9 12 12 11 10 6 4 5 8 14 13 28 31 27 15 14 8 11 13 14 13 13 15 17 18 20 23 35 48 54 50 44 50 62
9 7 8 12 10 8 4 4 10 11 12 11 9 4 7 10 13 19 21 28 33 32 20 14 14 8 8 10 12 12 14 17 19 22 31 54 63 54 56 51 43 34 44
7 6 6 6 6 8 4 3 10 12 11 8 5 14 17 17 20 27 33 32 30 18 12 12 13 11 10 12 15 17 18 21 27 38 53 57 57 56 50 39 54 60 58
7 6 6 6 7 8 3 3 10 11 8 4 15 20 20 17 22 29 27 17 9 8 9 10 12 14 15 15 18 22 25 26 25 27 28 42 58 56 58 60 58 61 62
8 9 12 8 4 4 2 5 11 9 3 16 23 25 23 16 14 13 8 6 9 10 11 13 25 24 26 31 32 26 22 24 36 33 28 26 36 46 45 47 46 42 40
8 6 6 11 6 4 7 15 9 5 6 22 26 28 21 17 12 10 8 14 15 20 25 29 31 31 31 34 34 33 27 24 24 28 39 46 48 46 48 47 56 54 43
7 6 3 5 7 6 12 14 6 4 11 25 33 26 21 19 13 10 12 22 19 30 33 29 31 35 34 34 30 35 32 31 36 25 32 66 71 68 68 58 52 43 27
7 6 3 3 7 7 13 7 4 7 23 36 31 31 25 18 15 12 11 24 26 30 33 40 42 42 42 36 36 40 48 52 44 53 60 61 53 69 84 57 48 34 24
8 4 4 5 7 7 5 4 10 25 40 42 40 39 33 19 15 14 13 17 30 39 39 41 42 44 46 43 34 40 50 67 69 60 68 81 60 62 64 50 41 29 24
11 4 3 3 3 3 3 9 26 38 48 51 52 46 43 49 56 60 63 61 61 71 81 79 77 69 57 46 42 51 54 64 73 69 62 66 52 57 55 47 34 32 27
22 5 4 3 3 4 10 26 41 57 66 68 70 67 77 92 92 88 77 65 60 55 63 71 65 63 60 58 53 60 64 60 56 59 51 55 53 68 43 29 28 29 29
35 20 8 5 8 14 24 33 46 67 73 83 80 83 87 92 93 93 89 87 79 74 70 73 63 58 59 62 69 74 61 71 69 42 54 66 58 37 28 30 29 34 28
59 64 36 18 15 24 35 45 57 68 90 85 75 77 81 82 86 87 90 83 80 82 90 88 84 90 95 94 85 77 74 62 49 46 52 50 45 35 26 24 32 33 22
96 94 74 90 41 35 55 57 71 64 83 95 91 89 84 78 80 82 83 77 76 86 86 83 84 94 96 92 90 65 39 30 31 34 36 35 30 23 22 30 36 25 19
72 90 100 100 97 76 44 61 86 85 96 86 92 95 94 87 81 71 82 81 80 80 83 84 81 81 87 79 58 28 24 20 21 25 23 20 20 21 34 38 28 22 19
74 100 83 80 99 89 95 56 56 58 63 92 97 82 85 62 64 77 76 67 64 62 64 75 83 76 74 58 26 17 13 13 18 18 18 22 31 36 34 26 21 18 11
98 86 96 90 91 98 95 78 73 54 72 63 47 38 30 16 23 57 47 48 56 56 52 40 39 30 16 14 14 13 16 18 23 34 36 36 33 31 26 20 18 13 10
93 99 89 95 95 76 60 56 64 72 74 72 72 68 66 67 68 61 49 30 17 15 13 11 11 15 16 17 17 19 24 32 35 33 32 32 32 29 25 18 14 12 11
56 56 57 57 51 37 28 25 24 30 31 29 26 22 22 20 16 13 11 10 10 11 12 13 15 16 16 18 25 30 31 29 29 29 28 28 27 26 20 15 13 14 13
66 72 72 54 44 40 40 38 24 24 29 31 34 34 29 26 24 22 21 22 24 28 31 30 30 30 29 30 29 27 27 27 27 27 26 25 22 18 15 15 14 16 24
94 91 87 82 80 61 59 64 56 45 39 34 29 29 31 32 33 33 33 33 32 32 32 31 30 29 29 28 27 26 26 26 24 23 23 20 15 14 14 15 18 17 24
96 96 95 88 78 72 54 62 64 54 47 44 38 30 28 31 33 34 35 35 35 34 33 32 31 29 26 23 22 20 18 16 17 17 16 16 16 19 19 24 21 16 14
97 96 97 97 93 75 69 56 60 62 58 50 46 43 41 39 36 35 38 38 37 35 34 31 30 28 23 18 14 13 13 14 13 13 16 23 33 35 32 27 25 23 26
80 89 96 95 98 98 84 77 66 67 68 65 60 55 47 40 41 41 38 36 33 30 26 24 22 19 17 16 15 14 14 15 14 20 26 34 43 46 44 34 25 28 41
94 94 85 85 87 82 91 83 85 82 71 70 68 67 54 46 43 40 35 29 29 27 26 22 20 17 16 14 14 14 15 16 20 44 47 43 38 38 40 35 30 36 47

GFSGL_500_rhum_048.txt.gz
RH
25 23 18 15 9 13 8 5 4 7 12 13 13 13 12 11 5 5 8 10 19 20 16 10 6 6 8 22 23 16 12 14 21 23 23 24 33 44 49 55 47 39 43
15 26 24 16 8 10 7 5 4 6 11 12 12 13 11 11 5 5 10 11 19 26 22 11 7 7 8 13 13 12 15 18 19 20 25 40 45 48 37 35 36 39 43
15 28 28 20 10 8 5 5 4 6 8 11 12 12 11 8 5 9 12 16 23 29 28 12 9 6 9 11 12 12 13 15 20 24 33 28 22 25 28 34 32 32 36
12 18 24 29 16 8 6 5 4 5 9 9 12 12 9 6 12 15 19 25 27 28 21 10 10 6 7 11 12 14 17 20 25 30 33 31 27 26 30 32 37 40 41
9 9 7 7 14 15 11 8 4 4 9 11 12 11 6 14 17 19 23 22 24 18 10 7 8 8 8 11 15 17 20 23 23 24 25 33 29 32 37 47 42 46 47
10 7 7 6 6 8 9 8 7 3 5 12 11 8 12 20 21 16 18 17 11 7 9 8 7 11 13 14 17 27 26 24 21 23 23 26 45 57 55 61 54 49 44
8 9 7 4 4 5 6 7 8 3 4 13 11 4 16 24 25 16 12 10 6 9 13 11 11 22 22 22 23 24 20 19 24 27 40 58 58 58 54 49 66 47 38
14 8 8 7 8 7 5 5 6 2 6 13 7 4 21 26 29 18 12 8 10 15 19 19 27 27 27 29 26 22 32 35 39 43 50 78 67 63 36 30 36 37 38
39 11 8 8 8 10 10 4 3 5 11 8 4 6 22 31 26 23 14 10 19 18 23 28 28 28 33 34 33 37 38 38 43 42 41 46 50 58 59 38 52 61 40
45 31 14 8 6 4 8 6 5 12 16 5 4 7 26 35 31 20 14 11 21 26 27 27 30 36 39 38 37 40 37 35 41 48 46 40 48 54 54 47 57 64 35
73 48 18 9 7 4 3 5 6 12 10 4 4 14 37 38 32 21 15 14 20 30 34 37 42 47 49 39 37 42 53 62 62 62 67 69 50 42 49 63 67 51 26
92 46 22 8 6 4 2 5 7 10 5 4 14 36 41 44 40 32 36 44 45 49 59 71 77 75 73 63 62 68 71 71 66 75 83 74 69 66 74 70 59 39 27
92 53 25 9 4 3 4 6 6 4 4 15 36 46 53 59 56 58 68 66 62 61 62 62 60 59 65 69 68 65 72 86 81 84 84 81 61 50 52 44 33 25 19
97 52 39 11 4 3 3 3 3 5 14 29 46 63 65 68 64 68 91 91 90 82 84 79 81 90 93 85 81 82 90 95 94 94 86 53 35 33 23 22 22 18 22
82 46 44 28 7 8 13 9 13 25 34 53 72 79 80 78 76 77 82 82 85 83 80 72 72 67 74 79 78 77 84 83 84 70 47 41 21 17 19 19 21 30 37
71 82 49 48 37 22 26 64 96 87 74 69 75 87 95 87 79 79 73 76 74 72 74 70 67 71 74 75 74 68 73 70 42 31 17 14 13 18 22 35 35 34 31
100 97 79 73 63 58 56 54 65 90 97 96 98 86 97 100 94 88 89 84 76 72 66 68 70 82 64 52 54 44 34 23 15 14 13 14 19 28 35 29 28 26 22
87 84 95 96 94 90 86 80 55 60 82 94 92 91 88 93 84 81 66 72 65 32 19 34 59 50 51 39 26 19 12 13 15 18 18 21 30 30 26 24 24 22 19
72 90 59 62 80 86 85 82 94 90 90 98 81 77 75 66 53 45 48 53 59 58 52 46 38 22 12 11 12 14 18 16 15 18 27 29 28 26 25 23 20 18 17
87 97 93 83 90 93 95 97 88 66 84 83 83 95 80 66 62 65 62 47 37 27 18 14 12 11 11 12 15 19 23 28 29 30 28 26 24 22 18 15 13 13 11
56 75 85 96 84 96 92 97 88 58 53 53 56 44 40 43 43 36 22 18 18 18 18 16 17 22 26 30 32 31 30 30 30 29 27 24 20 18 14 12 11 11 11
55 52 61 69 75 60 69 73 67 58 62 60 53 37 30 33 33 33 34 36 33 29 28 28 30 30 31 31 32 32 32 31 28 26 25 20 14 12 13 14 14 13 14
70 64 66 69 72 78 81 61 76 92 85 71 69 62 48 41 42 37 34 32 32 31 32 33 34 34 34 34 33 32 32 31 28 22 16 15 16 16 15 14 17 21 28
91 83 78 74 65 68 86 93 94 95 91 83 62 65 65 60 54 51 50 46 42 36 33 31 32 32 34 34 34 34 31 28 25 21 19 18 15 13 14 14 16 25 31
75 97 88 89 99 96 89 92 96 91 78 72 74 68 58 59 61 57 52 52 47 42 41 40 39 37 36 33 30 29 28 26 23 15 14 13 14 13 18 24 26 32 43
72 63 67 89 93 86 96 97 94 94 92 82 69 60 60 61 57 56 61 62 61 56 47 44 40 37 34 30 30 25 18 15 16 16 14 15 16 15 27 27 52 50 46